Simultaneous Nadir Overpasses (SNOs) Predictions

Prediction of SNOs between METOP-A and NOAA-19 Satellite Orbit:

Table of predicted SNOs for the next 14.0 days since TLE Epoch: 11/3/2017
Index Date (METOP-A) Time (METOP-A) Lat,Lon (METOP-A) SZA (METOP-A ) Date (NOAA-19) Time (NOAA-19) Lat,Lon (NOAA-19) SZA (NOAA-19 ) Distance(km) Time Diff (sec)
1 11/06/2017 14:58:57 77.81, -38.46 94.09 11/06/2017 14:57:42 77.81, -38.47 94.08 0.27 75
2 11/06/2017 15:49:38 -77.82, 128.91 85.89 11/06/2017 15:48:39 -77.80, 128.89 85.93 2.93 59
3 11/06/2017 16:40:19 77.79, -63.91 94.09 11/06/2017 16:39:43 77.80, -63.89 94.09 0.77 36
4 11/06/2017 17:31:00 -77.80, 103.47 85.90 11/06/2017 17:30:40 -77.78, 103.47 85.92 2.35 20
5 11/06/2017 18:21:41 77.77, -89.35 94.08 11/06/2017 18:21:44 77.78, -89.30 94.10 1.56 3
6 11/06/2017 19:12:22 -77.78, 78.03 85.90 11/06/2017 19:12:41 -77.76, 78.05 85.91 1.92 19
7 11/06/2017 20:03:03 77.75,-114.79 94.08 11/06/2017 20:03:45 77.77,-114.72 94.10 2.36 42
8 11/06/2017 20:53:43 -77.76, 52.59 85.90 11/06/2017 20:54:41 -77.75, 52.63 85.90 1.72 58
9 11/06/2017 21:44:31 77.43,-141.60 93.74 11/06/2017 21:45:38 77.47,-138.70 93.89 70.04 67
10 11/17/2017 10:17:21 -77.85,-147.96 82.97 11/17/2017 10:16:09 -77.87,-148.03 82.96 2.93 72
11 11/17/2017 11:08:01 77.84, 19.35 97.04 11/17/2017 11:07:14 77.84, 19.35 97.03 0.41 47
12 11/17/2017 11:58:43 -77.82,-173.40 82.98 11/17/2017 11:58:10 -77.85,-173.45 82.96 3.19 33
13 11/17/2017 12:49:23 77.82, -6.09 97.03 11/17/2017 12:49:15 77.82, -6.06 97.03 0.70 8
14 11/17/2017 13:40:04 -77.80, 161.16 82.99 11/17/2017 13:40:10 -77.84, 161.13 82.95 3.63 6
15 11/17/2017 14:30:44 77.80, -31.54 97.02 11/17/2017 14:31:15 77.81, -31.48 97.04 1.51 31
16 11/17/2017 15:21:26 -77.78, 135.72 82.99 11/17/2017 15:22:11 -77.82, 135.71 82.95 4.20 45
17 11/17/2017 16:12:06 77.78, -56.98 97.01 11/17/2017 16:13:16 77.79, -56.90 97.04 2.34 70




NCC Satellite Simultaneous Nadir Overpasses (SNOs) Prediction Service
